星链-36535(STARLINK-36535)

导读

STARLINK-36535(NORAD编号67986)是美国SpaceX公司星链(Starlink)星座中的一颗第二代低轨互联网卫星,星链是全球规模最大的低轨卫星互联网计划。该卫星运行在近地轨道,属于SpaceX二代星链Gen2A组网卫星批次,用于提供全球高速低延迟卫星宽带服务,支持消费级互联网接入及特殊场景通信需求。作为Starlink大规模组网的组成部分,它和同批次卫星共同扩展星座覆盖范围,提升星座整体通信容量,目前随星座运行,服务全球各地的卫星互联网用户。

Basic Information
目录编号:
67986
目录名称:
STARLINK-36535
国际标识:
2026-039A
轨道中心:
EARTH
卫星名称:
星链-36535
卫星全名:
星链-36535(STARLINK-36535)
卫星状态:
在轨 (已飞行189 天)
发射日期:
2026-02-27 UTC
国别 :
美国 (US)
星等 :
--
Orbit Information
数据来源 国际轨道数据 AOE轨道数据
星历时间 2026-09-04T00:51:04+0800
19小时前
查看轨道信息
2026-09-01T23:00:00+0800
2天前
查看轨道信息
半长轴 6861.097km 6861.208km
偏心率 0.0001247 0.0000347
轨道倾角 43.002° 43.003°
近地点辐角 264.836° 223.159°
升交点赤经 123.999° 135.737°
平近点角 95.235° 220.761°
近地点 482.104km 482.832km
远地点 483.816km 483.31km
周期 94.265分钟 94.267分钟
每日圈数 15.276098 15.275727
Detailed Information
固有亮度:
5
最大亮度:
2.5
卫星平台:
Starlink V1.0
覆盖范围:
全球
运营商:
太空探索技术公司
运营商所在国:
美国
制造商(研发单位):
太空探索技术公司
制造商所在国:
美国
使用方式:
暂无
Satellite Introduction
Starlink 计划是 SpaceX 推出的全球卫星互联网项目,通过发射低轨道卫星,为全球尤其是偏远地区提供高速、低延迟的互联网服务。自 2019 年起,Starlink 已部署数千颗卫星,旨在缩小全球数字鸿沟,推动互联网普及。该项目还为军事、航空等行业提供通信支持,带来广泛经济效益。
2D Orbit Map
3D Orbit Map
Orbit Altitude Analysis Chart
Orbit Inclination Analysis Chart
Orbit Comprehensive Analysis Chart
View Comprehensive Chart
Conjunction Data List
Event ID Objects TCA Miss Dist (km) Collision Risk Probability Collision Risk Index (CRI) Action
CDM_260906-143205-642606-798621
2026-09-06T
14:32:18+0000
0.702 km
远距离
6.287301E-5 中风险 0.71
CDM_260906-051005-638806-798621
2026-09-06T
05:10:24+0000
0.785 km
远距离
4.620561E-5 中风险 0.68
CDM_260906-165605-638806-798621
2026-09-06T
16:56:32+0000
0.995 km
远距离
2.094704E-5 中风险 0.61
CDM_260904-214105-864606-798621
2026-09-04T
21:41:59+0000
2.231 km
极远距离
2.129762E-6 低风险 0.42
CDM_260906-033605-638806-798621
2026-09-06T
03:36:15+0000
2.136 km
极远距离
1.914068E-6 低风险 0.41
CDM_260906-125805-642606-798621
2026-09-06T
12:58:09+0000
2.857 km
极远距离
1.102384E-6 低风险 0.36